SCP
0 0 0 0 0 0 0 0 0 0 0 0 0 0 0 0 0 0 -0 0 0 0 0 0 0 0 0 0 0 0 0 0 0 0 0 0 0 0 0 0 0 0 0 0 0
0 0 0 0 0 0 0 0 0 0 0 0 0 0 0 0 0 0 0 0 0 0 0 0 0 0 0 0 0 0 0 0 0 0 0 0 0 0 0 0 0 0 0 0 0
0 0 0 0 0 0 0 0 0 0 0 0 0 0 0 0 0 -0 0 0 0 0 0 0 0 0 0 0 0 0 0 0 0 0 0 0 0 0 0 0 0 0 0 0 0
0 0 0 0 0 0 0 0 0 0 0 0 0 0 0 0 0 0 0 0 0 0 0 0 0 0 0 0 0 0 0 0 0 0 0 0 0 0 0 0 0 0 0 0 0
0 0 0 0 0 0 0 0 0 0 0 0 0 0 0 0 0 0 0 0 0 0 0 0 0 0 0 0 0 0 0 0 0 0 0 0 0 0 0 0 0 0 0 0 0
0 0 0 0 0 0 0 0 0 0 0 0 0 0 0 0 0 0 0 0 0 0 0 0 0 0 0 0 0 0 0 0 0 0 0 0 0 0 0 0 0 0 0 0 0
0 0 0 0 0 0 0 0 0 0 0 0 0 0 0 0 0 0 0 0 0 0 0 0 0 0 0 0 0 0 0 0 0 0 0 0 0 0 0 0 0 0 0 0 0
0 0 0 0 0 0 0 0 0 0 0 0 0 0 0 -0 0 0 0 0 0 0 0 0 0 0 0 0 0 0 0 0 0 0 0 0 0 0 0 0 0 0 0 0 0
0 0 0 0 0 0 0 0 0 0 0 0 0 0 0 0 0 0 0 0 0 0 0 0 0 0 0 0 0 0 0 0 0 0 0 0 0 0 0 0 0 0 0 0 0
0 0 0 0 0 0 0 0 -0 -0 0 0 0 0 0 0 0 0 0 0 0 0 0 0 0 0 0 0 0 0 0 0 0 0 0 0 0 0 0 0 0 0 0 0 0
0 0 0 0 0 0 0 -0 -0 -0 -0 0 0 0 0 0 0 0 0 0 0 0 0 0 0 0 0 0 0 0 0 0 0 0 0 0 0 0 0 0 0 0 0 0 0
0 0 0 0 0 0 -0 0 0 0 0 0 -0 -0 -0 0 0 0 0 0 0 0 0 0 0 -0 0 0 0 0 0 0 0 0 0 0 0 0 0 0 0 0 0 0 0
0 0 0 0 0 -0 0 0 0 0 -0 0 0 0 0 0 0 0 0 0 0 0 0 0 0 0 0 0 0 0 0 0 0 0 0 0 0 0 0 0 0 0 0 0 0
0 0 0 0 -0 0 0 0 0 0 -0 -0 0 0 0 -0 0 -0 0 0 0 0 0 0 0 0 0 0 0 0 0 0 0 0 0 0 0 0 0 0 0 0 0 0 0
0 0 0 0 0 0 0 0 0 0 -0 0 0 0 0 0 0 0 0 0 0 0 0 0 0 0 0 0 0 0 0 0 0 0 0 0 0 0 0 0 -0 0 0 0 0
0 0 0 0 0 0 0 0 0 0 0 0 0 0 0 0 0 0 0 0 0 0 0 0 0 0 0 0 0 0 0 0 0 0 0 0 0 -0 -0 -0 -0 0 0 0 0
0 -0 0 0 0 0 0 0 0 0 0 0 0 0 0 0 0 0 0 0 0 0 0 0 0 0 0 0 0 0 0 0 0 0 0 0 0 -0 -0 0 -0 0 0 0 0
0 0 0 0 0 0 0 0 0 0 0 0 0 0 0 0 0 0 0 0 0 0 0 0 0 0 0 0 0 0 0 0 0 0 0 0 0 0 0 -0 -0 -0 0 0 0
0 0 0 0 0 0 0 -0 -0 -0 -0 0 0 0 0 0 0 0 -0 0 0 0 0 0 0 0 0 0 0 0 0 0 0 0 0 0 -0 0 0 0 -0 -0 0 -0 0
0 0 0 0 0 0 0 -0 -0 -0 0 -0 -0 0 0 0 0 0 -0 0 0 0 0 0 0 0 0 0 0 0 0 0 0 0 0 0 0 0 0 0 -0 0 -0 0 0
0 0 0 0 0 0 -0 0 0 0 0 -0 -0 0 0 0 0 0 -0 -0 0 0 0 0 0 0 0 0 0 0 0 0 0 0 0 0 0 0 0 0 0 0 0 0 0
0 0 0 0 0 0 0 0 -0 0 0 0 -0 0 -0 0 0 0 -0 -0 -0 0 0 0 0 0 0 0 0 0 0 0 0 0 0 0 0 0 0 0 0 0 0 -0 -0
0 0 0 0 0 0 0 0 0 0 -0 -0 -0 -0 -0 -0 0 0 -0 -0 -0 0 0 0 0 0 0 0 0 0 0 0 0 0 0 0 0 0 0 0 0 0 0 -0 -0
0 0 0 0 0 0 0 0 -0 0 0 -0 -0 -0 -0 -0 0 0 0 -0 -0 -0 0 0 0 0 0 0 0 0 0 0 0 0 0 0 0 0 0 0 0 0 0 -0 -0
0 0 0 0 0 0 0 0 0 0 0 0 0 -0 -0 -0 -0 0 0 0 -0 -0 -0 0 0 0 0 0 0 0 0 0 0 0 0 0 0 0 0 0 0 0 0 -0 -0
0 0 0 0 0 0 0 0 0 -0 0 0 0 -0 -0 -0 -0 -0 0 0 0 0 0 0 0 0 0 0 0 0 0 0 0 0 0 0 0 0 0 0 0 0 0 -0 -0
0 0 0 0 0 0 0 0 0 0 0 0 -0 -0 -0 -0 -0 -0 -0 0 0 0 0 0 0 0 0 0 0 0 0 0 0 0 0 0 0 0 0 0 0 0 0 -0 0
Wind_Speed_500mb
24 26 26 27 30 35 41 44 45 45 47 50 55 55 55 55 57 53 54 46 23 26 19 20 20 30 24 35 33 29 21 28 38 31 23 13 21 10 11 22 29 25 30 31 29
28 31 32 33 30 27 31 34 36 40 43 46 48 52 56 52 53 65 63 55 49 43 37 32 30 32 42 39 34 37 29 44 42 28 33 33 24 26 21 31 41 42 36 30 28
27 30 32 33 34 34 30 30 36 38 38 37 38 43 44 38 36 40 51 54 54 56 57 42 34 35 46 53 54 50 49 41 52 46 47 43 47 43 39 31 51 46 43 46 46
29 30 30 33 36 37 37 37 33 33 37 37 36 37 35 19 18 12 32 37 48 60 62 52 46 50 47 51 64 59 60 56 60 66 48 40 57 50 47 48 60 53 51 55 62
33 33 35 35 36 37 38 39 42 42 35 33 35 33 24 23 43 25 21 19 12 14 46 65 61 61 56 54 62 61 50 64 57 65 59 52 54 61 60 56 61 53 51 56 60
35 34 35 36 38 38 37 37 38 40 41 40 36 34 23 41 27 46 53 34 27 16 21 53 42 62 58 66 62 60 64 70 68 64 55 49 60 62 57 62 60 56 54 55 57
33 35 38 40 42 43 41 40 40 39 40 42 43 30 35 60 39 34 41 60 53 29 29 32 59 29 49 46 63 64 51 47 48 53 53 52 53 52 53 60 56 47 50 54 56
35 36 40 43 44 42 41 43 42 40 37 35 34 21 29 31 36 45 44 60 43 49 39 31 35 54 43 36 32 41 51 49 50 46 53 40 56 46 47 51 46 42 50 56 60
40 37 40 40 40 42 43 41 37 32 28 26 14 22 31 22 22 28 30 41 36 38 37 35 33 45 37 39 35 49 52 64 50 44 36 42 65 45 43 43 37 46 56 63 62
40 40 43 47 46 48 47 38 27 18 11 4 12 15 31 26 10 14 19 20 29 34 34 44 36 29 39 41 58 50 53 54 55 41 30 48 59 41 51 49 54 50 62 56 60
44 46 49 50 49 47 41 29 14 14 12 28 24 37 44 42 32 28 15 12 23 41 47 57 41 55 84 69 54 51 59 60 46 44 43 53 57 47 43 46 58 56 60 64 61
46 47 49 50 50 47 21 19 10 13 28 43 61 65 67 59 44 46 27 22 28 44 52 40 60 95 58 57 59 58 58 61 48 46 46 47 57 51 48 48 62 59 65 56 55
48 49 51 51 48 23 25 12 7 21 18 41 32 37 33 25 39 54 42 51 37 40 57 68 86 53 64 60 61 62 61 50 55 40 45 47 58 61 53 62 59 48 48 62 57
52 53 55 51 20 20 18 7 13 18 11 13 9 8 7 11 13 34 27 55 40 49 48 63 69 58 64 70 67 62 50 49 51 41 46 43 46 56 43 43 45 58 56 54 41
56 56 59 41 30 17 13 11 12 7 12 11 13 5 1 13 21 12 18 45 56 46 32 62 58 65 62 87 61 66 44 46 49 45 49 55 38 46 39 41 50 41 48 48 27
57 60 43 16 12 15 17 15 6 9 19 2 8 5 9 3 9 21 21 26 41 54 47 56 41 49 84 41 59 44 33 36 36 35 42 49 43 47 47 54 49 44 36 38 21
58 41 23 16 10 18 6 9 11 16 14 0 11 14 25 3 17 10 19 22 25 41 53 43 58 39 41 57 51 53 43 21 26 29 34 38 37 42 47 35 50 36 22 21 21
55 16 18 11 18 10 2 7 15 8 10 30 21 34 33 8 5 16 28 24 29 48 40 42 39 62 43 61 44 60 54 27 37 31 29 41 21 28 20 45 64 56 29 21 25
43 6 18 23 13 6 8 10 14 20 16 20 30 32 29 8 12 13 7 11 19 40 38 36 56 60 44 53 55 59 48 48 22 20 15 26 27 32 35 43 31 33 41 31 25
26 4 22 18 5 3 6 9 10 18 26 27 31 22 28 21 17 18 5 5 24 27 27 12 23 49 69 48 54 56 47 41 30 35 32 24 20 17 16 22 25 26 30 34 32
16 6 17 17 6 4 7 10 19 23 25 14 21 25 29 29 31 25 3 8 9 26 24 27 16 32 55 47 55 36 47 38 35 26 29 15 15 18 34 20 23 25 31 37 42
16 5 13 10 6 3 9 18 23 22 21 17 17 19 23 23 23 10 3 7 16 17 15 7 13 24 52 49 49 55 43 53 25 40 21 11 8 3 15 3 20 15 24 39 45
21 8 11 14 7 9 13 19 10 24 21 14 20 11 22 24 12 9 5 15 22 10 10 7 18 21 29 43 42 54 46 52 34 29 39 23 6 12 10 13 8 15 31 44 51
13 7 6 6 6 15 20 14 18 19 16 28 21 24 22 21 16 14 18 15 14 13 14 14 16 32 13 43 30 50 50 52 45 21 25 29 26 16 16 16 13 17 34 44 52
10 5 8 7 9 17 27 18 25 17 16 23 7 11 21 14 32 15 16 23 9 13 12 7 24 36 26 12 13 23 49 47 52 41 32 25 35 26 22 15 13 18 40 47 50
11 10 13 32 20 18 11 15 20 22 13 20 20 30 29 28 29 35 30 18 4 9 11 7 9 26 33 26 15 14 17 49 43 47 38 28 31 29 30 25 9 13 42 47 49
8 10 12 18 11 14 11 15 26 31 23 18 27 31 32 24 30 40 38 35 30 25 23 9 8 17 37 32 12 22 26 34 42 41 40 41 39 26 10 16 16 6 36 43 47
Wind_Direction_500mb
342 336 324 318 312 302 294 291 291 288 283 281 281 279 276 275 277 276 268 261 258 232 246 227 229 217 218 228 221 221 235 246 245 247 246 175 250 182 273 275 283 261 270 280 296
341 340 337 333 327 323 320 318 310 300 292 284 281 278 279 280 278 272 264 264 254 241 234 217 209 204 224 231 221 218 227 241 253 263 261 270 261 280 277 278 280 275 264 269 280
331 329 329 328 328 324 322 317 317 319 312 305 296 284 279 287 297 267 253 256 250 242 236 228 218 218 228 233 225 231 246 241 245 250 263 287 278 276 274 267 269 289 300 288 283
329 325 323 322 321 321 321 318 312 311 312 316 313 304 292 274 251 232 229 231 235 237 225 213 213 219 231 235 232 242 249 244 259 260 257 262 274 278 267 272 275 290 291 291 291
330 329 325 322 318 315 315 315 315 314 313 308 305 310 312 245 239 273 222 210 228 249 218 205 211 218 228 238 244 243 249 252 252 263 269 264 265 269 275 277 277 290 290 288 285
338 334 329 324 319 315 312 310 304 308 309 304 296 295 283 252 253 241 234 218 238 240 224 211 222 227 239 238 243 250 250 249 254 255 260 262 264 269 271 275 282 287 290 292 290
342 337 333 330 326 322 317 309 307 306 301 298 295 285 263 253 261 267 242 238 242 235 225 216 213 217 228 249 249 253 253 254 245 250 253 263 264 255 267 272 275 279 289 290 288
342 338 334 333 330 326 321 315 312 303 298 290 283 249 260 285 269 262 251 251 251 237 227 218 218 231 239 252 261 242 239 246 233 229 243 239 265 264 270 271 274 282 291 293 292
344 339 334 333 331 327 325 318 311 301 293 284 244 217 274 269 258 260 252 249 239 239 226 222 225 225 226 233 246 226 234 231 242 238 242 231 257 255 257 270 273 281 293 298 293
342 338 336 334 331 331 331 326 316 302 299 213 234 232 246 248 261 279 277 246 232 211 211 212 211 214 223 214 227 222 229 245 257 234 224 241 251 255 257 270 276 287 294 293 293
339 334 331 330 329 331 338 345 303 251 260 255 272 245 274 277 280 269 264 229 216 215 206 195 201 214 218 219 238 249 245 247 237 243 244 249 256 257 261 271 276 286 286 290 290
347 340 333 327 328 332 344 340 321 315 295 278 263 262 262 268 276 266 248 226 199 218 208 189 214 222 218 224 227 239 245 246 249 239 236 251 267 274 270 272 278 280 283 281 285
346 343 337 329 328 338 333 302 293 327 266 288 264 260 261 246 250 256 237 227 231 230 212 214 220 218 219 222 226 227 234 240 251 255 252 258 266 267 266 260 273 268 264 276 277
339 336 333 327 339 312 317 270 294 316 282 256 192 206 200 216 234 247 238 221 224 236 229 229 234 217 222 222 218 229 219 240 255 253 251 247 268 264 272 269 265 268 277 270 258
335 332 324 320 296 307 285 295 299 280 282 102 139 100 154 240 331 89 204 222 232 222 223 224 227 226 221 223 215 236 228 234 241 249 260 249 256 265 261 266 265 261 263 263 243
339 333 330 349 279 287 284 286 269 231 245 224 155 285 247 212 308 350 289 224 241 241 241 237 223 224 232 219 221 223 218 226 237 245 245 245 252 259 259 265 268 267 265 238 201
346 347 11 14 335 307 279 252 232 247 34 197 326 320 307 342 307 328 341 262 219 211 229 228 240 235 236 211 205 202 194 202 220 225 246 242 249 254 254 264 246 259 254 180 179
349 12 0 350 325 329 235 206 254 307 270 333 323 302 281 9 304 287 327 320 217 231 219 222 223 223 213 211 188 193 190 203 215 231 242 218 252 240 256 248 251 255 240 173 173
355 339 8 343 359 149 234 234 335 355 350 315 308 274 273 215 308 277 340 304 298 231 239 223 231 193 221 211 197 190 208 212 239 230 270 221 228 271 257 255 248 238 219 190 179
352 359 1 352 10 215 281 310 322 330 312 296 285 287 297 310 308 313 72 55 315 339 326 268 256 224 199 206 209 196 194 197 219 234 228 242 240 240 256 235 224 215 198 190 174
357 299 356 20 13 338 315 312 323 326 324 307 302 294 289 291 282 287 206 133 283 320 301 283 256 223 185 200 190 191 197 212 209 227 209 228 224 201 238 244 193 191 183 173 170
357 324 344 353 313 183 323 333 323 319 327 292 294 289 286 293 294 270 270 209 206 301 302 274 286 271 198 205 216 201 203 199 197 198 247 216 229 290 242 303 208 210 157 164 165
343 299 330 354 342 337 326 301 290 310 337 331 306 318 305 298 291 301 335 199 196 229 306 357 232 224 212 199 207 195 207 195 211 201 206 221 229 208 135 138 144 140 152 157 157
340 329 337 8 337 333 331 306 327 329 314 318 301 298 332 314 293 286 309 43 253 256 260 252 251 253 190 195 191 202 203 192 206 205 187 212 208 180 137 120 134 146 160 161 161
357 358 325 306 317 320 297 295 305 353 323 312 282 313 339 315 316 297 354 312 314 202 249 279 242 227 259 313 300 275 206 205 207 217 226 194 228 236 162 64 44 170 169 167 164
348 338 319 294 289 301 292 305 317 341 314 306 306 326 316 301 295 295 310 309 324 307 297 279 302 263 250 238 240 243 247 206 208 211 227 232 236 239 278 291 271 178 178 174 172
305 307 290 293 290 308 303 320 312 316 294 287 312 309 300 320 320 300 290 287 275 286 289 294 308 240 233 213 228 230 209 222 210 212 217 221 231 253 267 225 249 160 187 185 180
Wind_Speed_850mb
24 26 26 27 30 35 41 44 45 45 47 50 55 55 55 55 57 53 54 46 23 26 19 20 20 30 24 35 33 29 21 28 38 31 23 13 21 10 11 22 29 25 30 31 29
28 31 32 33 30 27 31 34 36 40 43 46 48 52 56 52 53 65 63 55 49 43 37 32 30 32 42 39 34 37 29 44 42 28 33 33 24 26 21 31 41 42 36 30 28
27 30 32 33 34 34 30 30 36 38 38 37 38 43 44 38 36 40 51 54 54 56 57 42 34 35 46 53 54 50 49 41 52 46 47 43 47 43 39 31 51 46 43 46 46
29 30 30 33 36 37 37 37 33 33 37 37 36 37 35 19 18 12 32 37 48 60 62 52 46 50 47 51 64 59 60 56 60 66 48 40 57 50 47 48 60 53 51 55 62
33 33 35 35 36 37 38 39 42 42 35 33 35 33 24 23 43 25 21 19 12 14 46 65 61 61 56 54 62 61 50 64 57 65 59 52 54 61 60 56 61 53 51 56 60
35 34 35 36 38 38 37 37 38 40 41 40 36 34 23 41 27 46 53 34 27 16 21 53 42 62 58 66 62 60 64 70 68 64 55 49 60 62 57 62 60 56 54 55 57
33 35 38 40 42 43 41 40 40 39 40 42 43 30 35 60 39 34 41 60 53 29 29 32 59 29 49 46 63 64 51 47 48 53 53 52 53 52 53 60 56 47 50 54 56
35 36 40 43 44 42 41 43 42 40 37 35 34 21 29 31 36 45 44 60 43 49 39 31 35 54 43 36 32 41 51 49 50 46 53 40 56 46 47 51 46 42 50 56 60
40 37 40 40 40 42 43 41 37 32 28 26 14 22 31 22 22 28 30 41 36 38 37 35 33 45 37 39 35 49 52 64 50 44 36 42 65 45 43 43 37 46 56 63 62
40 40 43 47 46 48 47 38 27 18 11 4 12 15 31 26 10 14 19 20 29 34 34 44 36 29 39 41 58 50 53 54 55 41 30 48 59 41 51 49 54 50 62 56 60
44 46 49 50 49 47 41 29 14 14 12 28 24 37 44 42 32 28 15 12 23 41 47 57 41 55 84 69 54 51 59 60 46 44 43 53 57 47 43 46 58 56 60 64 61
46 47 49 50 50 47 21 19 10 13 28 43 61 65 67 59 44 46 27 22 28 44 52 40 60 95 58 57 59 58 58 61 48 46 46 47 57 51 48 48 62 59 65 56 55
48 49 51 51 48 23 25 12 7 21 18 41 32 37 33 25 39 54 42 51 37 40 57 68 86 53 64 60 61 62 61 50 55 40 45 47 58 61 53 62 59 48 48 62 57
52 53 55 51 20 20 18 7 13 18 11 13 9 8 7 11 13 34 27 55 40 49 48 63 69 58 64 70 67 62 50 49 51 41 46 43 46 56 43 43 45 58 56 54 41
56 56 59 41 30 17 13 11 12 7 12 11 13 5 1 13 21 12 18 45 56 46 32 62 58 65 62 87 61 66 44 46 49 45 49 55 38 46 39 41 50 41 48 48 27
57 60 43 16 12 15 17 15 6 9 19 2 8 5 9 3 9 21 21 26 41 54 47 56 41 49 84 41 59 44 33 36 36 35 42 49 43 47 47 54 49 44 36 38 21
58 41 23 16 10 18 6 9 11 16 14 0 11 14 25 3 17 10 19 22 25 41 53 43 58 39 41 57 51 53 43 21 26 29 34 38 37 42 47 35 50 36 22 21 21
55 16 18 11 18 10 2 7 15 8 10 30 21 34 33 8 5 16 28 24 29 48 40 42 39 62 43 61 44 60 54 27 37 31 29 41 21 28 20 45 64 56 29 21 25
43 6 18 23 13 6 8 10 14 20 16 20 30 32 29 8 12 13 7 11 19 40 38 36 56 60 44 53 55 59 48 48 22 20 15 26 27 32 35 43 31 33 41 31 25
26 4 22 18 5 3 6 9 10 18 26 27 31 22 28 21 17 18 5 5 24 27 27 12 23 49 69 48 54 56 47 41 30 35 32 24 20 17 16 22 25 26 30 34 32
16 6 17 17 6 4 7 10 19 23 25 14 21 25 29 29 31 25 3 8 9 26 24 27 16 32 55 47 55 36 47 38 35 26 29 15 15 18 34 20 23 25 31 37 42
16 5 13 10 6 3 9 18 23 22 21 17 17 19 23 23 23 10 3 7 16 17 15 7 13 24 52 49 49 55 43 53 25 40 21 11 8 3 15 3 20 15 24 39 45
21 8 11 14 7 9 13 19 10 24 21 14 20 11 22 24 12 9 5 15 22 10 10 7 18 21 29 43 42 54 46 52 34 29 39 23 6 12 10 13 8 15 31 44 51
13 7 6 6 6 15 20 14 18 19 16 28 21 24 22 21 16 14 18 15 14 13 14 14 16 32 13 43 30 50 50 52 45 21 25 29 26 16 16 16 13 17 34 44 52
10 5 8 7 9 17 27 18 25 17 16 23 7 11 21 14 32 15 16 23 9 13 12 7 24 36 26 12 13 23 49 47 52 41 32 25 35 26 22 15 13 18 40 47 50
11 10 13 32 20 18 11 15 20 22 13 20 20 30 29 28 29 35 30 18 4 9 11 7 9 26 33 26 15 14 17 49 43 47 38 28 31 29 30 25 9 13 42 47 49
8 10 12 18 11 14 11 15 26 31 23 18 27 31 32 24 30 40 38 35 30 25 23 9 8 17 37 32 12 22 26 34 42 41 40 41 39 26 10 16 16 6 36 43 47
Wind_Direction_850mb
342 336 324 318 312 302 294 291 291 288 283 281 281 279 276 275 277 276 268 261 258 232 246 227 229 217 218 228 221 221 235 246 245 247 246 175 250 182 273 275 283 261 270 280 296
341 340 337 333 327 323 320 318 310 300 292 284 281 278 279 280 278 272 264 264 254 241 234 217 209 204 224 231 221 218 227 241 253 263 261 270 261 280 277 278 280 275 264 269 280
331 329 329 328 328 324 322 317 317 319 312 305 296 284 279 287 297 267 253 256 250 242 236 228 218 218 228 233 225 231 246 241 245 250 263 287 278 276 274 267 269 289 300 288 283
329 325 323 322 321 321 321 318 312 311 312 316 313 304 292 274 251 232 229 231 235 237 225 213 213 219 231 235 232 242 249 244 259 260 257 262 274 278 267 272 275 290 291 291 291
330 329 325 322 318 315 315 315 315 314 313 308 305 310 312 245 239 273 222 210 228 249 218 205 211 218 228 238 244 243 249 252 252 263 269 264 265 269 275 277 277 290 290 288 285
338 334 329 324 319 315 312 310 304 308 309 304 296 295 283 252 253 241 234 218 238 240 224 211 222 227 239 238 243 250 250 249 254 255 260 262 264 269 271 275 282 287 290 292 290
342 337 333 330 326 322 317 309 307 306 301 298 295 285 263 253 261 267 242 238 242 235 225 216 213 217 228 249 249 253 253 254 245 250 253 263 264 255 267 272 275 279 289 290 288
342 338 334 333 330 326 321 315 312 303 298 290 283 249 260 285 269 262 251 251 251 237 227 218 218 231 239 252 261 242 239 246 233 229 243 239 265 264 270 271 274 282 291 293 292
344 339 334 333 331 327 325 318 311 301 293 284 244 217 274 269 258 260 252 249 239 239 226 222 225 225 226 233 246 226 234 231 242 238 242 231 257 255 257 270 273 281 293 298 293
342 338 336 334 331 331 331 326 316 302 299 213 234 232 246 248 261 279 277 246 232 211 211 212 211 214 223 214 227 222 229 245 257 234 224 241 251 255 257 270 276 287 294 293 293
339 334 331 330 329 331 338 345 303 251 260 255 272 245 274 277 280 269 264 229 216 215 206 195 201 214 218 219 238 249 245 247 237 243 244 249 256 257 261 271 276 286 286 290 290
347 340 333 327 328 332 344 340 321 315 295 278 263 262 262 268 276 266 248 226 199 218 208 189 214 222 218 224 227 239 245 246 249 239 236 251 267 274 270 272 278 280 283 281 285
346 343 337 329 328 338 333 302 293 327 266 288 264 260 261 246 250 256 237 227 231 230 212 214 220 218 219 222 226 227 234 240 251 255 252 258 266 267 266 260 273 268 264 276 277
339 336 333 327 339 312 317 270 294 316 282 256 192 206 200 216 234 247 238 221 224 236 229 229 234 217 222 222 218 229 219 240 255 253 251 247 268 264 272 269 265 268 277 270 258
335 332 324 320 296 307 285 295 299 280 282 102 139 100 154 240 331 89 204 222 232 222 223 224 227 226 221 223 215 236 228 234 241 249 260 249 256 265 261 266 265 261 263 263 243
339 333 330 349 279 287 284 286 269 231 245 224 155 285 247 212 308 350 289 224 241 241 241 237 223 224 232 219 221 223 218 226 237 245 245 245 252 259 259 265 268 267 265 238 201
346 347 11 14 335 307 279 252 232 247 34 197 326 320 307 342 307 328 341 262 219 211 229 228 240 235 236 211 205 202 194 202 220 225 246 242 249 254 254 264 246 259 254 180 179
349 12 0 350 325 329 235 206 254 307 270 333 323 302 281 9 304 287 327 320 217 231 219 222 223 223 213 211 188 193 190 203 215 231 242 218 252 240 256 248 251 255 240 173 173
355 339 8 343 359 149 234 234 335 355 350 315 308 274 273 215 308 277 340 304 298 231 239 223 231 193 221 211 197 190 208 212 239 230 270 221 228 271 257 255 248 238 219 190 179
352 359 1 352 10 215 281 310 322 330 312 296 285 287 297 310 308 313 72 55 315 339 326 268 256 224 199 206 209 196 194 197 219 234 228 242 240 240 256 235 224 215 198 190 174
357 299 356 20 13 338 315 312 323 326 324 307 302 294 289 291 282 287 206 133 283 320 301 283 256 223 185 200 190 191 197 212 209 227 209 228 224 201 238 244 193 191 183 173 170
357 324 344 353 313 183 323 333 323 319 327 292 294 289 286 293 294 270 270 209 206 301 302 274 286 271 198 205 216 201 203 199 197 198 247 216 229 290 242 303 208 210 157 164 165
343 299 330 354 342 337 326 301 290 310 337 331 306 318 305 298 291 301 335 199 196 229 306 357 232 224 212 199 207 195 207 195 211 201 206 221 229 208 135 138 144 140 152 157 157
340 329 337 8 337 333 331 306 327 329 314 318 301 298 332 314 293 286 309 43 253 256 260 252 251 253 190 195 191 202 203 192 206 205 187 212 208 180 137 120 134 146 160 161 161
357 358 325 306 317 320 297 295 305 353 323 312 282 313 339 315 316 297 354 312 314 202 249 279 242 227 259 313 300 275 206 205 207 217 226 194 228 236 162 64 44 170 169 167 164
348 338 319 294 289 301 292 305 317 341 314 306 306 326 316 301 295 295 310 309 324 307 297 279 302 263 250 238 240 243 247 206 208 211 227 232 236 239 278 291 271 178 178 174 172
305 307 290 293 290 308 303 320 312 316 294 287 312 309 300 320 320 300 290 287 275 286 289 294 308 240 233 213 228 230 209 222 210 212 217 221 231 253 267 225 249 160 187 185 180